Temperature
20 20 21 21 18 14 15 15 14 13 13 12 11 11 9 9 10 10 7 7 8 8 8 8 7 7 6 6 6 6 5 5 4 4 4 4 4 4 4 4 4 4 4 4 4 4 4 4 5
20 21 21 20 15 15 15 14 13 13 13 12 11 10 8 7 8 8 7 7 8 8 8 8 8 7 7 6 6 5 5 4 4 4 4 4 3 3 3 3 3 3 3 3 3 3 3 3 3
21 21 21 15 15 15 15 13 12 13 13 13 10 9 8 7 8 7 7 7 8 8 8 8 8 7 7 6 6 5 5 4 4 4 3 3 3 3 3 3 3 2 2 2 2 2 2 3 2
21 21 20 14 15 14 13 11 12 13 13 12 10 8 7 7 8 8 8 8 8 8 8 8 7 7 7 6 6 5 5 4 4 3 3 3 3 3 2 2 2 2 2 2 2 2 2 2 2
21 21 14 14 14 13 12 13 13 12 12 11 10 7 7 8 7 7 8 7 7 8 8 8 7 7 7 6 6 5 5 4 4 4 3 3 3 3 2 2 2 2 2 1 1 1 1 1 1
21 18 14 14 14 13 13 14 13 13 12 11 11 8 7 7 7 7 7 7 7 7 8 7 7 7 7 6 6 5 5 4 4 4 4 4 4 3 2 3 2 2 1 1 1 1 1 1 1
21 15 14 13 13 13 13 14 13 12 12 11 12 8 6 6 7 7 7 7 7 7 7 7 7 7 7 6 6 6 5 5 4 4 4 4 4 3 3 3 2 2 2 1 1 1 1 1 1
21 14 14 13 13 13 14 14 14 13 13 12 12 10 8 8 7 7 7 7 7 7 7 7 7 7 6 6 6 5 5 5 4 4 4 3 3 3 3 3 2 2 2 1 1 0 0 0 1
20 15 14 13 13 14 14 14 13 13 12 11 11 11 11 10 7 6 6 6 6 6 7 6 6 6 6 6 5 5 5 4 4 4 3 3 3 3 3 2 2 2 1 1 0 -0 -0 0 0
19 14 15 15 14 13 13 13 13 12 11 11 11 11 11 10 8 7 7 7 7 7 6 6 6 6 6 5 5 5 5 4 4 3 3 3 2 2 2 1 1 1 0 0 -0 -1 -1 -1 -1
15 14 14 14 14 14 13 13 13 12 9 11 12 12 11 9 8 8 7 7 7 6 6 6 6 6 6 5 5 5 4 4 3 3 3 2 2 1 1 0 0 -0 -1 -1 -1 -2 -2 -3 -3
14 13 14 14 14 14 14 13 12 12 13 14 13 13 11 10 9 8 7 7 6 6 6 6 6 6 5 5 5 4 4 3 3 2 2 2 1 1 -0 -1 -1 -2 -2 -2 -3 -3 -3 -4 -4
13 13 14 14 14 14 14 12 12 12 13 13 13 12 11 10 10 8 7 7 6 6 6 6 6 5 5 5 4 4 4 3 2 2 1 1 0 -0 -1 -1 -2 -2 -3 -3 -4 -4 -4 -5 -5
13 13 13 13 14 14 13 12 12 13 13 12 12 12 11 10 10 8 7 7 6 6 6 6 6 5 5 5 4 4 3 3 2 1 1 -0 -1 -1 -1 -2 -2 -3 -3 -4 -4 -5 -5 -6 -6
13 12 12 13 13 13 13 11 11 13 12 12 12 11 11 10 9 9 8 8 7 7 6 6 6 5 5 4 4 3 3 2 1 1 0 -0 -1 -1 -2 -2 -3 -3 -4 -4 -5 -5 -6 -6 -7
13 13 13 12 12 12 11 11 12 13 12 11 11 11 10 10 9 9 8 8 7 7 6 6 6 5 5 4 4 3 2 2 1 0 -0 -1 -1 -2 -2 -2 -3 -4 -4 -5 -6 -6 -7 -7 -7
14 13 14 14 11 11 10 10 12 12 11 10 11 11 10 10 9 9 8 8 7 7 6 6 5 5 4 4 3 3 2 1 1 0 -0 -1 -1 -2 -2 -3 -3 -4 -5 -6 -6 -7 -7 -8 -8
16 14 15 14 12 10 9 9 10 10 10 10 11 11 10 10 10 10 8 8 7 7 6 6 5 5 4 4 3 3 2 1 1 0 -0 -1 -1 -2 -2 -3 -4 -5 -5 -6 -7 -7 -8 -8 -9
16 16 15 15 12 11 10 11 11 11 9 9 9 10 10 11 11 10 9 8 7 7 6 6 5 5 4 4 3 3 2 1 1 0 -0 -1 -2 -2 -3 -3 -4 -5 -6 -7 -7 -8 -8 -8 -9
16 16 15 14 13 12 10 11 11 11 9 10 10 11 12 12 11 10 9 8 8 7 7 6 6 5 5 4 3 3 2 1 1 0 -0 -1 -2 -3 -3 -4 -5 -5 -6 -7 -8 -8 -9 -9 -10
16 15 15 15 14 12 12 11 12 12 10 10 11 12 13 13 12 12 10 9 9 8 8 7 6 5 4 4 3 2 2 1 1 0 -1 -1 -2 -3 -3 -4 -5 -6 -7 -7 -8 -9 -9 -10 -10
15 15 15 15 13 11 12 11 12 12 11 9 11 12 13 14 13 12 12 11 10 10 8 7 6 5 4 4 3 2 2 1 1 0 -1 -1 -2 -3 -4 -4 -5 -6 -7 -8 -8 -9 -9 -10 -10
15 15 14 14 13 11 11 11 12 12 12 11 11 14 15 16 15 14 13 13 12 10 9 8 6 5 4 3 3 2 2 1 0 -0 -1 -1 -2 -3 -4 -5 -6 -6 -7 -8 -9 -9 -9 -10 -10
14 13 13 10 10 11 11 11 11 11 12 13 13 16 18 17 16 15 14 13 12 11 9 8 6 5 4 3 3 2 2 1 0 -0 -1 -1 -2 -3 -4 -5 -6 -7 -7 -8 -9 -9 -9 -10 -10
13 12 13 13 11 11 13 12 13 13 11 13 15 18 19 18 17 16 14 13 12 11 10 8 7 5 4 3 3 2 2 1 0 -0 -1 -2 -2 -3 -4 -5 -6 -7 -8 -8 -9 -9 -9 -10 -10
13 12 13 14 12 12 13 12 13 13 14 15 17 18 19 18 17 16 15 14 13 12 11 9 8 6 5 3 3 2 1 1 0 -1 -1 -2 -2 -3 -4 -5 -6 -7 -8 -8 -9 -9 -9 -10 -10
14 12 11 11 11 11 11 11 12 13 13 13 15 16 18 18 17 16 16 15 13 12 11 10 8 7 5 4 3 2 1 1 0 -1 -1 -2 -3 -3 -4 -5 -6 -7 -8 -8 -9 -9 -9 -10 -10
13 12 10 11 12 11 11 11 13 15 13 12 11 14 17 18 17 16 16 15 14 12 11 9 8 6 5 4 3 2 1 1 -0 -1 -1 -2 -3 -4 -4 -5 -6 -7 -7 -8 -9 -9 -9 -9 -9
12 12 11 10 9 10 11 13 13 14 13 13 13 17 18 18 18 17 16 15 14 12 11 9 7 6 5 3 3 2 1 0 -0 -1 -1 -2 -3 -4 -4 -5 -6 -7 -7 -8 -9 -9 -9 -9 -9
11 11 10 11 11 9 8 13 13 12 12 14 16 18 19 18 18 17 16 15 13 12 11 9 8 6 5 3 2 2 1 0 -0 -1 -2 -2 -3 -4 -4 -5 -6 -6 -7 -8 -8 -9 -9 -9 -9
Wind_Speed
4 6 4 4 6 7 3 2 5 4 3 3 5 9 9 5 3 6 6 8 14 11 7 5 8 9 10 11 12 14 15 15 17 17 18 19 19 20 20 21 22 23 24 24 25 25 26 26 27
3 4 5 5 5 3 2 3 5 3 7 8 6 6 6 4 3 8 6 9 15 11 7 4 8 9 10 11 12 13 14 15 16 17 18 18 19 19 20 21 22 22 23 24 24 25 25 26 26
2 3 5 5 5 5 6 4 6 4 6 5 5 5 5 7 7 8 7 14 15 12 7 4 8 8 9 10 11 12 13 14 15 17 18 18 19 20 20 21 21 22 23 23 24 24 25 26 26
4 5 6 6 4 1 5 7 7 8 4 6 6 5 3 2 7 8 11 17 15 11 7 4 7 7 8 9 10 11 13 14 15 16 18 19 19 20 20 21 21 22 23 23 24 25 25 26 26
4 5 7 5 2 2 2 8 9 7 6 4 6 6 2 2 6 10 13 15 13 10 7 4 6 6 7 8 9 10 12 13 15 16 18 19 20 20 20 21 22 22 23 24 24 25 25 26 26
5 5 5 4 3 2 3 6 7 5 6 6 8 8 5 4 8 10 12 13 15 12 8 6 6 6 6 7 8 9 11 13 14 16 17 18 19 20 20 21 22 22 23 24 24 25 26 26 26
5 5 6 8 7 5 7 6 9 8 7 8 10 8 4 6 8 9 12 14 14 13 11 8 8 7 6 6 8 9 10 12 13 15 16 17 19 19 19 21 22 23 23 24 24 25 26 26 26
5 6 6 7 7 7 7 7 6 8 6 7 9 10 8 10 10 9 9 9 10 11 11 9 7 7 6 6 7 8 9 10 12 13 14 15 17 18 19 21 22 23 23 23 24 25 26 26 26
4 5 5 9 9 7 8 6 3 3 7 5 3 6 7 15 13 10 7 5 6 7 8 9 8 6 5 4 6 7 7 8 9 10 12 13 16 17 18 20 21 22 22 22 23 24 25 25 25
6 5 7 4 6 9 8 7 9 6 5 3 1 2 9 16 16 14 10 10 9 8 6 9 8 6 4 3 3 5 5 6 7 8 9 11 13 15 16 18 20 20 20 21 21 23 22 22 21
5 6 3 1 2 8 8 8 8 10 8 10 9 9 15 14 14 14 12 11 10 9 8 9 10 7 4 1 1 3 4 4 6 7 7 9 11 13 15 16 18 19 17 18 19 19 19 19 19
6 3 2 1 3 7 9 9 6 9 10 8 12 18 19 17 18 16 14 11 10 9 9 9 11 9 5 2 1 1 2 3 4 4 5 7 8 10 11 12 14 15 15 15 17 16 18 18 18
4 2 2 3 5 6 8 7 5 8 6 5 13 17 19 18 15 12 11 12 10 10 10 8 12 10 6 3 2 1 2 2 2 2 3 4 5 5 7 9 11 13 13 14 15 16 15 16 16
4 4 3 4 4 2 5 4 5 8 7 11 15 17 17 17 16 12 11 13 13 12 11 8 11 11 7 5 3 2 2 3 2 1 1 2 3 3 5 7 9 11 12 13 14 15 13 13 14
5 5 2 2 0 0 2 6 9 6 10 12 14 15 15 15 14 14 14 13 14 12 11 9 11 11 9 6 4 2 3 3 2 2 2 1 1 2 3 5 8 10 12 13 14 13 12 12 13
4 3 3 5 5 3 5 9 8 9 12 13 13 12 14 15 15 14 14 13 13 13 12 10 12 11 10 7 5 2 2 2 3 3 4 3 2 3 4 5 7 10 11 11 10 8 6 7 7
1 2 5 4 7 6 7 11 6 8 12 13 13 14 14 14 15 14 14 14 16 15 14 12 9 10 10 8 6 3 2 3 4 4 5 5 4 4 5 6 8 9 9 9 10 7 5 7 9
4 5 6 7 6 7 8 13 11 8 12 13 13 13 15 18 19 14 15 14 15 14 14 12 10 10 11 8 5 2 2 4 5 6 7 6 6 6 6 7 8 8 7 6 6 6 6 6 8
4 4 6 6 5 8 12 16 16 10 12 13 13 14 17 20 16 13 14 14 14 14 14 14 11 10 7 4 3 2 3 3 4 6 7 7 6 7 7 7 8 8 5 5 6 5 7 6 6
3 4 5 4 4 7 8 14 14 10 11 13 16 18 19 17 13 13 14 15 17 18 17 15 13 12 9 5 4 3 3 3 5 6 6 6 7 7 7 7 7 8 5 5 6 6 4 6 6
3 4 4 3 3 4 6 11 8 5 6 9 11 12 14 19 18 16 18 19 18 19 19 17 15 13 11 9 5 3 1 1 2 3 4 6 7 8 8 9 8 8 6 5 6 6 6 7 7
4 2 1 1 2 5 2 5 9 6 6 9 14 14 16 17 17 17 18 19 21 20 17 15 15 13 11 11 7 7 6 5 5 4 4 7 7 7 8 9 9 8 8 6 6 7 6 6 9
4 1 1 1 1 4 3 4 10 3 8 12 14 17 19 17 16 17 20 22 20 17 16 15 14 13 11 10 10 8 7 6 4 4 5 5 7 8 9 10 10 9 9 8 8 7 7 6 7
3 4 4 5 4 4 6 7 8 6 9 10 10 14 17 16 15 15 14 14 14 13 14 14 15 14 13 12 11 10 10 8 7 6 6 5 4 6 9 10 10 11 10 10 9 8 8 8 8
4 4 3 4 2 7 4 5 11 11 11 11 11 13 14 13 12 12 13 15 16 17 18 16 17 15 14 13 12 11 11 10 10 8 7 6 4 4 7 10 10 10 12 12 12 8 8 8 8
5 6 5 4 5 6 5 8 10 8 8 9 10 9 9 10 11 13 15 17 17 19 19 18 18 15 15 14 12 11 10 8 7 8 7 7 6 6 9 11 11 12 13 13 11 7 7 7 8
4 6 7 5 3 6 8 9 11 6 6 6 7 7 11 11 11 12 12 14 16 19 21 21 19 16 15 14 12 11 10 9 9 8 7 6 6 8 10 10 10 11 12 12 10 7 8 8 9
3 5 5 4 3 6 8 7 7 8 10 11 10 12 14 12 11 11 12 14 15 17 17 16 17 17 14 14 12 11 10 10 9 7 8 8 7 9 8 8 8 9 10 11 8 8 8 9 10
6 5 5 4 4 5 6 9 8 10 11 12 14 14 14 14 14 14 13 13 13 12 14 16 16 15 14 14 12 10 10 9 8 8 8 8 7 7 7 7 7 8 8 8 8 9 9 10 11
8 8 9 5 6 6 5 11 10 11 11 11 12 12 11 12 11 11 11 11 12 15 15 17 16 16 15 14 12 11 10 9 9 9 8 7 7 7 7 7 8 9 9 9 9 11 11 11 12
Wind_Direction
74 98 71 58 58 56 93 124 137 114 79 62 77 90 97 100 137 152 153 137 123 105 84 51 65 59 54 49 44 40 37 34 31 28 26 24 23 22 20 18 16 14 12 11 9 7 6 4 2
78 105 56 60 82 97 198 149 133 152 142 131 91 88 86 86 94 123 156 140 121 109 94 63 76 65 57 51 46 40 37 34 31 28 25 23 22 21 20 17 15 13 11 9 8 6 5 3 1
40 84 78 71 90 167 192 176 156 130 131 116 80 63 101 143 142 158 162 137 121 112 97 75 84 71 61 53 46 40 36 33 31 28 25 23 22 20 18 16 13 11 10 9 7 6 5 3 2
67 57 55 68 83 329 179 175 158 129 103 81 105 91 74 129 167 161 142 134 123 120 107 85 89 75 63 53 45 40 35 32 30 28 25 23 21 18 17 14 12 10 9 8 7 6 5 4 3
64 81 65 65 56 353 150 157 148 137 143 111 117 127 134 352 131 131 138 136 132 134 120 90 88 73 61 50 43 39 34 31 30 27 25 23 19 16 16 13 10 9 8 7 6 6 5 4 3
60 70 91 149 155 133 178 175 147 133 138 129 130 143 188 173 142 145 143 140 140 138 126 89 80 64 55 46 41 38 34 32 30 27 24 22 18 15 15 12 9 8 7 6 5 4 3 3 1
95 91 133 159 159 183 201 173 158 155 161 175 151 140 192 208 184 153 143 141 141 139 129 107 86 66 49 35 38 36 34 31 29 25 23 22 18 15 15 10 7 7 5 4 2 2 1 0 359
114 101 108 159 172 208 184 152 164 160 172 146 140 153 196 203 184 148 140 138 139 137 135 125 104 77 54 40 35 34 32 29 28 23 21 22 18 16 14 8 6 5 3 2 360 359 358 358 356
85 84 163 193 185 196 177 141 115 127 126 125 175 196 195 159 157 144 143 145 150 146 145 140 121 95 67 57 41 32 30 28 29 25 21 25 24 20 15 7 5 3 2 1 358 357 356 356 353
62 136 188 199 199 174 173 154 153 137 151 163 93 44 133 149 162 166 170 172 171 171 172 157 142 126 92 59 33 28 31 33 32 29 30 30 29 23 16 9 5 3 1 360 357 355 355 352 348
68 142 155 1 155 147 145 152 157 148 201 209 193 170 154 163 173 181 183 178 178 177 174 168 158 150 138 91 9 15 23 24 23 24 29 31 31 25 19 12 5 1 359 357 354 352 348 345 344
80 59 111 44 109 137 153 159 184 195 216 211 178 163 165 176 185 190 188 182 175 175 177 174 165 162 166 184 280 4 8 4 8 19 30 39 35 23 16 7 359 353 351 348 347 343 340 340 339
94 114 36 43 86 130 141 174 212 230 228 142 147 162 177 186 192 195 187 178 173 179 178 175 168 169 176 190 225 271 329 329 340 13 48 58 44 20 6 357 350 346 345 344 341 337 335 335 334
115 91 58 35 55 98 152 217 248 242 152 143 161 178 188 193 193 190 184 182 182 181 178 173 171 174 176 186 208 248 292 301 299 285 121 95 44 12 353 343 340 339 341 340 338 331 329 326 326
94 81 8 298 283 196 103 267 237 211 149 166 182 190 196 202 198 197 191 185 184 181 176 175 177 175 176 187 207 242 282 282 267 234 199 192 332 336 330 326 326 330 336 337 335 329 331 329 328
95 70 296 238 197 169 158 258 252 171 165 186 196 200 205 210 208 204 194 185 181 177 176 181 177 171 175 185 198 231 262 255 251 240 229 234 265 296 304 309 312 323 329 332 327 326 324 318 315
21 287 271 253 193 170 194 249 271 173 183 198 203 207 211 215 217 210 199 188 182 179 178 179 173 170 176 182 184 197 225 245 259 259 247 245 258 279 289 295 302 314 319 321 324 332 312 311 314
237 234 259 256 207 176 218 255 264 198 207 213 210 212 216 219 220 209 201 190 184 181 178 177 176 174 171 168 167 179 236 261 271 266 254 249 260 279 287 292 298 307 308 307 307 304 304 298 302
219 236 264 265 188 188 234 259 269 214 216 227 222 219 222 227 223 207 198 188 182 181 181 180 178 176 164 159 167 185 226 248 266 266 253 251 265 283 288 289 296 298 292 289 296 300 306 303 301
241 273 275 284 194 206 266 274 269 220 211 219 220 222 225 229 223 210 197 190 190 188 187 185 183 179 176 172 168 175 190 224 242 248 249 256 271 285 287 285 284 288 287 292 297 301 295 302 317
272 246 256 286 343 270 306 301 282 246 224 232 228 226 226 226 224 213 203 199 196 195 191 190 186 181 179 171 158 159 166 258 252 244 247 259 275 283 286 288 285 283 275 278 288 289 284 303 306
258 216 201 326 352 295 235 294 289 265 260 245 237 232 233 230 225 215 208 204 203 200 192 187 183 181 178 171 170 174 192 211 223 222 234 262 273 278 286 287 283 278 275 270 281 301 284 288 304
217 168 146 85 151 307 244 217 282 282 264 255 240 233 235 231 222 217 211 208 204 195 189 185 181 181 178 177 179 182 200 212 224 231 246 255 266 273 280 282 277 272 273 273 275 282 279 274 283
119 63 58 51 68 290 224 188 273 234 221 242 241 231 232 230 222 220 212 200 194 186 185 183 183 186 183 183 184 188 199 209 220 232 242 248 251 264 271 275 270 270 271 272 273 272 273 273 276
96 82 359 329 329 255 236 212 249 243 222 218 228 232 230 223 215 213 202 196 192 187 188 187 187 189 187 188 192 195 199 204 214 224 231 237 245 250 257 267 265 267 269 274 274 269 272 271 275
184 151 175 238 254 286 287 238 253 258 249 234 239 246 241 226 216 212 206 199 195 192 190 189 192 192 189 193 198 198 199 201 212 218 219 226 232 241 256 260 261 265 271 277 276 272 270 273 272
194 201 177 163 269 272 271 276 296 252 257 237 240 249 245 235 224 218 207 199 195 193 194 193 192 193 193 195 195 198 200 203 211 216 219 226 233 250 254 255 259 266 270 271 272 268 270 272 274
203 150 114 155 243 272 285 272 254 262 242 239 241 244 247 243 237 226 212 204 200 198 194 192 193 195 194 194 196 202 202 206 209 212 221 228 237 248 255 257 259 264 268 269 266 268 269 271 275
174 192 182 177 188 200 273 273 229 239 233 224 232 236 240 238 232 227 218 207 198 190 191 194 196 195 194 196 197 199 199 202 206 215 224 228 235 242 244 250 256 262 265 264 265 267 272 271 276
190 198 166 184 232 207 227 270 258 247 250 231 237 242 243 241 236 227 213 196 194 196 196 198 198 199 199 195 194 199 199 200 208 219 226 227 234 239 244 252 259 265 269 265 264 271 278 273 277
Height
1563 1564 1565 1566 1570 1585 1592 1591 1591 1593 1594 1595 1595 1595 1596 1600 1604 1610 1608 1608 1610 1612 1613 1612 1612 1611 1610 1608 1606 1604 1602 1600 1598 1596 1594 1592 1590 1587 1585 1582 1579 1576 1573 1571 1568 1565 1562 1560 1557
1564 1565 1566 1567 1578 1595 1595 1591 1592 1592 1593 1595 1596 1597 1597 1599 1601 1603 1604 1606 1609 1611 1611 1611 1610 1609 1608 1607 1605 1603 1601 1600 1598 1595 1593 1591 1589 1587 1584 1581 1578 1576 1573 1570 1567 1565 1562 1559 1556
1565 1565 1567 1570 1584 1592 1592 1592 1592 1592 1593 1594 1596 1597 1598 1599 1600 1601 1603 1606 1608 1609 1610 1610 1609 1608 1607 1606 1604 1602 1600 1599 1597 1595 1592 1590 1588 1586 1583 1580 1577 1575 1572 1570 1567 1564 1561 1558 1555
1565 1566 1568 1578 1587 1588 1587 1589 1589 1591 1593 1594 1595 1598 1599 1600 1601 1601 1603 1605 1607 1608 1609 1608 1608 1607 1606 1604 1603 1601 1599 1597 1596 1593 1591 1589 1586 1584 1581 1579 1576 1574 1571 1568 1566 1563 1560 1556 1553
1564 1565 1576 1589 1590 1589 1587 1588 1589 1590 1592 1593 1594 1596 1598 1599 1600 1601 1602 1605 1606 1607 1607 1607 1607 1606 1605 1603 1602 1600 1598 1596 1594 1592 1589 1587 1584 1582 1579 1577 1575 1572 1569 1567 1564 1561 1558 1554 1551
1564 1565 1584 1594 1591 1589 1588 1588 1589 1590 1592 1593 1594 1596 1596 1598 1598 1600 1602 1604 1605 1606 1606 1606 1605 1605 1603 1602 1600 1599 1597 1595 1592 1590 1587 1585 1582 1580 1577 1574 1572 1570 1567 1565 1562 1559 1555 1552 1548
1565 1571 1583 1589 1592 1590 1588 1588 1588 1589 1590 1591 1592 1594 1595 1596 1597 1599 1601 1602 1603 1604 1604 1604 1604 1603 1602 1601 1599 1597 1595 1593 1591 1588 1586 1583 1580 1578 1575 1573 1570 1568 1565 1562 1560 1556 1553 1549 1545
1564 1571 1584 1589 1589 1587 1585 1586 1586 1587 1589 1590 1591 1590 1590 1592 1595 1597 1599 1600 1601 1602 1603 1603 1602 1602 1600 1599 1597 1595 1593 1591 1589 1586 1584 1581 1578 1576 1573 1571 1568 1565 1563 1560 1557 1553 1550 1546 1543
1564 1574 1584 1584 1584 1581 1581 1583 1585 1586 1587 1587 1587 1587 1588 1589 1591 1594 1596 1597 1598 1599 1600 1601 1600 1600 1598 1597 1595 1593 1591 1589 1587 1584 1582 1579 1577 1574 1571 1569 1566 1563 1560 1557 1553 1550 1546 1543 1539
1564 1576 1576 1575 1575 1576 1578 1579 1582 1584 1585 1585 1584 1584 1585 1586 1588 1589 1591 1592 1594 1596 1597 1598 1598 1597 1596 1595 1593 1591 1589 1587 1584 1582 1580 1577 1575 1572 1569 1566 1563 1560 1556 1553 1549 1546 1542 1538 1535
1567 1573 1573 1573 1572 1573 1576 1579 1580 1581 1583 1579 1579 1580 1582 1583 1585 1586 1588 1589 1591 1593 1594 1595 1596 1595 1594 1592 1591 1589 1587 1584 1582 1580 1577 1575 1572 1569 1566 1563 1560 1556 1553 1549 1545 1542 1538 1534 1531
1571 1573 1573 1573 1573 1574 1576 1578 1579 1578 1576 1576 1577 1578 1579 1580 1581 1582 1584 1586 1588 1589 1591 1592 1593 1592 1591 1590 1588 1586 1584 1582 1579 1577 1574 1572 1569 1566 1563 1559 1556 1552 1548 1544 1541 1537 1534 1530 1527
1573 1574 1574 1574 1574 1575 1576 1577 1577 1573 1574 1574 1575 1575 1576 1577 1579 1581 1582 1584 1584 1586 1587 1589 1589 1589 1588 1587 1585 1583 1581 1579 1576 1574 1571 1568 1566 1562 1559 1555 1552 1548 1544 1540 1537 1533 1530 1526 1523
1574 1575 1575 1576 1576 1576 1577 1577 1576 1569 1570 1571 1571 1572 1573 1574 1575 1577 1578 1578 1580 1582 1584 1585 1586 1586 1585 1584 1582 1580 1578 1576 1573 1570 1567 1565 1562 1559 1555 1552 1548 1544 1540 1537 1533 1529 1526 1522 1519
1575 1577 1578 1577 1577 1577 1579 1577 1570 1565 1567 1567 1568 1569 1570 1571 1572 1572 1573 1574 1576 1578 1580 1581 1582 1582 1581 1580 1579 1577 1575 1572 1569 1567 1564 1561 1558 1555 1552 1548 1544 1541 1537 1533 1530 1526 1523 1519 1515
1576 1579 1581 1576 1576 1576 1581 1577 1562 1562 1563 1563 1564 1565 1566 1567 1568 1569 1570 1571 1573 1574 1576 1577 1578 1578 1577 1576 1575 1573 1571 1568 1566 1563 1561 1558 1555 1551 1548 1544 1541 1537 1534 1530 1526 1522 1518 1515 1511
1579 1582 1579 1574 1574 1575 1578 1572 1560 1559 1560 1559 1560 1561 1561 1562 1563 1564 1566 1567 1568 1569 1571 1572 1573 1573 1573 1572 1571 1569 1567 1564 1562 1559 1557 1554 1551 1548 1544 1541 1537 1533 1530 1526 1523 1519 1515 1511 1507
1577 1579 1575 1573 1571 1574 1575 1567 1557 1558 1558 1556 1556 1556 1557 1557 1557 1559 1561 1562 1563 1564 1565 1566 1567 1568 1568 1568 1566 1565 1563 1560 1558 1555 1553 1550 1547 1544 1541 1537 1533 1530 1526 1523 1519 1515 1512 1508 1504
1570 1572 1572 1568 1566 1570 1569 1561 1552 1552 1554 1552 1551 1551 1551 1550 1553 1555 1556 1557 1558 1558 1559 1560 1561 1562 1563 1563 1562 1560 1558 1556 1554 1551 1549 1546 1543 1540 1537 1533 1530 1526 1523 1519 1515 1511 1508 1504 1500
1568 1570 1569 1567 1565 1568 1566 1558 1546 1544 1544 1543 1543 1543 1544 1545 1547 1548 1550 1550 1550 1551 1552 1553 1555 1556 1557 1557 1557 1555 1554 1552 1550 1547 1544 1542 1539 1536 1533 1529 1526 1522 1519 1515 1512 1508 1504 1500 1497
1567 1568 1568 1567 1566 1565 1567 1558 1544 1538 1539 1538 1538 1538 1538 1538 1539 1541 1542 1542 1543 1543 1544 1546 1548 1550 1551 1551 1551 1550 1548 1547 1545 1543 1540 1538 1535 1532 1528 1525 1522 1518 1515 1511 1508 1504 1500 1496 1493
1569 1565 1565 1566 1571 1574 1568 1573 1546 1538 1537 1533 1531 1531 1530 1531 1532 1533 1534 1535 1535 1535 1538 1540 1542 1543 1544 1545 1545 1544 1543 1541 1540 1538 1536 1533 1530 1527 1524 1521 1517 1514 1511 1507 1504 1501 1497 1493 1488
1563 1563 1565 1566 1570 1574 1570 1573 1550 1538 1536 1528 1523 1522 1522 1524 1525 1526 1526 1527 1528 1530 1531 1533 1535 1536 1537 1538 1539 1538 1537 1536 1535 1533 1531 1528 1526 1523 1520 1516 1513 1510 1506 1502 1499 1496 1493 1489 1485
1562 1566 1568 1573 1576 1578 1566 1571 1555 1538 1527 1519 1515 1515 1516 1517 1519 1520 1521 1522 1522 1523 1524 1526 1527 1529 1530 1531 1532 1532 1531 1530 1529 1527 1525 1523 1521 1518 1515 1512 1508 1505 1501 1498 1494 1491 1487 1484 1480
1565 1573 1578 1575 1581 1573 1557 1559 1542 1518 1514 1510 1509 1509 1510 1512 1513 1514 1514 1514 1515 1515 1516 1518 1519 1521 1523 1524 1525 1525 1525 1524 1523 1521 1520 1518 1515 1513 1510 1506 1503 1500 1496 1492 1489 1485 1482 1478 1475
1565 1569 1579 1579 1579 1571 1555 1553 1527 1510 1506 1505 1506 1506 1507 1507 1508 1508 1508 1508 1508 1508 1509 1510 1511 1513 1516 1517 1518 1519 1518 1517 1516 1515 1514 1512 1510 1507 1504 1501 1498 1494 1491 1487 1484 1480 1476 1473 1469
1561 1566 1566 1575 1574 1575 1561 1544 1522 1506 1504 1503 1502 1502 1502 1502 1502 1502 1502 1502 1502 1502 1502 1503 1504 1506 1508 1510 1512 1512 1512 1511 1510 1509 1508 1506 1504 1501 1498 1495 1492 1489 1485 1482 1478 1474 1471 1467 1463
1558 1561 1571 1574 1576 1575 1562 1548 1529 1507 1504 1501 1500 1498 1496 1497 1497 1496 1496 1495 1495 1495 1496 1497 1498 1500 1502 1503 1504 1505 1505 1505 1504 1503 1502 1500 1498 1496 1493 1490 1486 1483 1480 1476 1472 1468 1465 1461 1457
1560 1561 1563 1569 1573 1575 1568 1539 1509 1502 1496 1495 1493 1492 1491 1491 1491 1490 1490 1489 1489 1489 1489 1490 1491 1492 1493 1495 1497 1498 1498 1498 1497 1497 1496 1494 1492 1490 1487 1484 1481 1477 1474 1470 1466 1462 1459 1455 1451
1553 1553 1559 1565 1563 1567 1568 1534 1496 1495 1490 1489 1488 1488 1487 1487 1486 1485 1484 1483 1482 1482 1481 1482 1482 1483 1485 1488 1489 1490 1491 1491 1490 1490 1490 1488 1486 1484 1481 1478 1475 1472 1468 1465 1461 1457 1453 1449 1445